TimeCST,TemperatureF,Dew PointF,Humidity,Sea Level PressureIn,VisibilityMPH,Wind Direction,Wind SpeedMPH,Gust SpeedMPH,PrecipitationIn,Events,Conditions,WindDirDegrees,DateUTC
12:56 AM,61.0,57.9,90,30.04,10.0,ESE,3.5,-,N/A,,Partly Cloudy,110,2012-12-06 06:56:00
1:56 AM,60.1,57.9,93,30.04,9.0,Calm,Calm,-,N/A,,Mostly Cloudy,0,2012-12-06 07:56:00
2:56 AM,57.9,55.9,93,30.02,5.0,Calm,Calm,-,N/A,,Scattered Clouds,0,2012-12-06 08:56:00
3:56 AM,57.9,55.9,93,30.01,5.0,Calm,Calm,-,N/A,,Partly Cloudy,0,2012-12-06 09:56:00
4:56 AM,57.0,55.0,93,30.01,4.0,Calm,Calm,-,N/A,,Partly Cloudy,0,2012-12-06 10:56:00
5:56 AM,57.0,55.0,93,30.03,7.0,Calm,Calm,-,N/A,,Partly Cloudy,0,2012-12-06 11:56:00
6:56 AM,55.9,54.0,93,30.05,6.0,Calm,Calm,-,N/A,,Partly Cloudy,0,2012-12-06 12:56:00
7:56 AM,61.0,57.9,90,30.06,10.0,NE,3.5,-,N/A,,Partly Cloudy,50,2012-12-06 13:56:00
8:56 AM,64.0,57.0,78,30.06,10.0,East,5.8,-,N/A,,Scattered Clouds,80,2012-12-06 14:56:00
9:56 AM,70.0,54.0,57,30.05,10.0,East,6.9,-,N/A,,Scattered Clouds,100,2012-12-06 15:56:00
10:56 AM,73.0,54.0,51,30.03,10.0,ESE,9.2,-,N/A,,Scattered Clouds,110,2012-12-06 16:56:00
11:56 AM,75.0,57.0,53,30.01,10.0,SE,9.2,-,N/A,,Scattered Clouds,140,2012-12-06 17:56:00
12:56 PM,73.0,57.0,57,29.98,10.0,ESE,10.4,-,N/A,,Mostly Cloudy,110,2012-12-06 18:56:00
1:56 PM,73.0,55.9,55,29.97,10.0,SE,11.5,-,N/A,,Mostly Cloudy,140,2012-12-06 19:56:00
2:56 PM,72.0,57.0,59,29.96,10.0,SSE,13.8,-,N/A,,Scattered Clouds,150,2012-12-06 20:56:00
3:56 PM,71.1,57.0,61,29.97,10.0,SE,9.2,-,N/A,,Mostly Cloudy,140,2012-12-06 21:56:00
4:56 PM,66.9,59.0,76,29.97,10.0,SSE,4.6,-,N/A,,Scattered Clouds,150,2012-12-06 22:56:00
5:56 PM,64.0,57.9,80,29.99,10.0,South,3.5,-,N/A,,Partly Cloudy,180,2012-12-06 23:56:00
6:56 PM,62.1,57.9,86,29.99,10.0,SSE,4.6,-,N/A,,Clear,150,2012-12-07 00:56:00
7:56 PM,61.0,57.0,87,29.99,10.0,Calm,Calm,-,N/A,,Clear,0,2012-12-07 01:56:00
8:56 PM,61.0,57.0,87,29.99,10.0,ESE,3.5,-,N/A,,Clear,120,2012-12-07 02:56:00
9:56 PM,60.1,57.0,90,29.99,10.0,ESE,3.5,-,N/A,,Clear,110,2012-12-07 03:56:00
10:56 PM,60.1,57.9,93,29.98,10.0,ESE,5.8,-,N/A,,Clear,110,2012-12-07 04:56:00
11:56 PM,57.9,55.9,93,29.98,4.0,Calm,Calm,-,N/A,,Partly Cloudy,0,2012-12-07 05:56:00